Location: Unspecified
(0.0000°N, 0.0000°E)
Time: 18:56:15
(UTC+01:00)

Ariane H10+ - Visible Passes

Search period start: 06 December 2016 00:00
Search period end: 16 December 2016 00:00
Orbit: 330 x 31344 km, 6.9° (Epoch: 05 December)

Date Brightness Start Highest point End Pass type
(mag) Time Alt. Az. Time Alt. Az. Time Alt. Az.
06 Dec 8.3 01:47:04 84° NE 01:47:04 84° NE 09:51:41 10° E visible
06 Dec 3.4 19:25:53 10° WNW 19:27:52 27° N 19:30:55 11° ENE visible
07 Dec 6.9 05:14:56 16° W 07:00:03 53° W 13:33:04 10° E visible
07 Dec 8.8 23:33:30 34° E 23:33:30 34° E 07:18:27 10° E visible
09 Dec 8.4 03:01:21 61° W 03:46:02 88° SSW 11:11:55 10° E visible
09 Dec 4.2 20:43:02 10° WNW 20:45:25 39° NNW 20:45:25 39° NNW visible
11 Dec 8.4 00:47:43 63° E 00:47:43 63° E 08:45:54 10° E visible
12 Dec 7.6 04:15:31 32° W 05:53:49 68° W 12:30:19 10° E visible
12 Dec 6.4 21:59:45 10° WNW 22:34:02 18° E 06:02:49 10° E visible
14 Dec 8.3 02:01:49 82° WNW 02:08:15 88° N 10:07:45 10° E visible
14 Dec 3.8 19:40:36 10° WNW 19:42:54 30° NNE 19:46:27 15° ENE visible
15 Dec 6.6 05:30:20 10° W 07:16:06 44° W 13:47:39 10° E visible
